Volver al catálogo

STARLINK-4274

ActivoComunicacionesVLEO
NORAD 52865·PAYLOAD·🇺🇸 United States

Lanzado Jun 17, 2022 desde Cape Canaveral Space Force Station

Loading…

Próximos Pases (próximas 24 horas)

TLE

ActualizadoSource: CelesTrak SupGP

Época: Sep 15, 2026, 02:27 UTC

1 52865C 22062AM  26258.10256944 -.00030189  00000+0 -89202-3 0  2586
2 52865  53.1603 242.6190 0001183  92.3118 294.6161 15.34403346    10

Sigue STARLINK-4274 en tiempo real con AllMySat

Download on the App Store